Weather History for Fort Myers, FL

Change the Weather History Date:

Thursday, April 17, 2014

  Actual Average Record
Temperature  
Mean Temperature 79 °F 74 °F  
Max Temperature 89 °F 85 °F 94 °F (1944)
Min Temperature 68 °F 63 °F 45 °F (1962)
Degree Days  
Heating Degree Days 0 0  
Month to date heating degree days 0 0  
Since 1 July heating degree days 178 284  
Cooling Degree Days 14 9  
Month to date cooling degree days 159 137  
Year to date cooling degree days 581 498  
Growing Degree Days 28 (Base 50)    
Moisture  
Dew Point 68 °F    
Average Humidity 80    
Maximum Humidity 93    
Minimum Humidity 53    
Precipitation  
Precipitation 0.01 in 0.07 in 1.82 in (1942)
Month to date precipitation 0.93 1.28  
Year to date precipitation 7.56 8.25  
Sea Level Pressure  
Sea Level Pressure 30.09 in    
Wind  
Wind Speed 10 mph (East)    
Max Wind Speed 25 mph    
Max Gust Speed 37 mph    
Visibility 10 miles    
Events Rain , Thunderstorm    
T = Trace of Precipitation, MM = Missing Value Source: NWS Daily Summary

Daily Weather History Graph

Daily Weather History Graph

Search for Another Location

Airport:

Trip Planner

Search our weather history database for the weather conditions in past years. The results will help you decide how hot, cold, wet, or windy it might be!

Date:

Astronomy

Apr. 17, 2014 Rise Set
Actual Time 7:01 AM EDT 7:52 PM EDT
Civil Twilight 6:38 AM EDT 8:16 PM EDT
Nautical Twilight 6:10 AM EDT 8:44 PM EDT
Astronomical Twilight 5:41 AM EDT 9:13 PM EDT
Moon 10:25 PM EDT (4/17) 8:42 AM EDT (4/17)
Length of Visible Light 13h 38m
Length of Day
12h 50m
Waning Gibbous, 94% of the Moon is Illuminated
Apr 17
Waning Gibbous
Apr 22
Last Quarter
Apr 29
New
May 6
First Quarter
May 14
Full

Hourly Weather History & Observations

Time (EDT) Temp. Heat Index Dew Point Humidity Pressure Visibility Wind Dir Wind Speed Gust Speed Precip Events Conditions
12:53 AM 70.0 °F - 63.0 °F 78% 30.09 in 10.0 mi ENE 10.4 mph - N/A   Mostly Cloudy
1:53 AM 69.1 °F - 63.0 °F 81% 30.08 in 10.0 mi ENE 9.2 mph - N/A   Clear
2:53 AM 69.1 °F - 63.0 °F 81% 30.07 in 10.0 mi NE 9.2 mph - N/A   Mostly Cloudy
3:31 AM 69.1 °F - 64.0 °F 84% 30.06 in 10.0 mi ENE 8.1 mph - N/A   Partly Cloudy
3:53 AM 68.0 °F - 64.0 °F 87% 30.06 in 10.0 mi ENE 8.1 mph - N/A   Clear
4:53 AM 68.0 °F - 64.0 °F 87% 30.07 in 10.0 mi NE 6.9 mph - N/A   Clear
5:53 AM 68.0 °F - 64.0 °F 87% 30.07 in 10.0 mi ENE 6.9 mph - N/A   Mostly Cloudy
6:53 AM 69.1 °F - 64.0 °F 84% 30.10 in 10.0 mi ENE 8.1 mph - N/A   Overcast
7:53 AM 70.0 °F - 64.9 °F 84% 30.11 in 10.0 mi ENE 6.9 mph - N/A   Overcast
8:53 AM 73.9 °F - 66.9 °F 79% 30.12 in 10.0 mi ENE 8.1 mph - N/A   Partly Cloudy
9:53 AM 78.1 °F - 69.1 °F 74% 30.13 in 10.0 mi East 12.7 mph - N/A   Partly Cloudy
10:53 AM 81.0 °F 84.1 °F 69.1 °F 67% 30.14 in 10.0 mi East 8.1 mph - N/A   Scattered Clouds
11:03 AM 82.0 °F 85.5 °F 69.1 °F 65% 30.13 in 10.0 mi ESE 13.8 mph - N/A   Mostly Cloudy
11:11 AM 81.0 °F 84.1 °F 69.1 °F 67% 30.13 in 10.0 mi East 11.5 mph - N/A   Scattered Clouds
11:53 AM 82.9 °F 86.5 °F 69.1 °F 63% 30.14 in 10.0 mi East 12.7 mph - N/A   Scattered Clouds
1:53 PM 84.9 °F 87.6 °F 66.9 °F 55% 30.09 in 10.0 mi NE 12.7 mph - N/A   Mostly Cloudy
2:53 PM 87.1 °F 90.6 °F 68.0 °F 53% 30.07 in 10.0 mi East 16.1 mph 19.6 mph N/A   Partly Cloudy
3:53 PM 87.1 °F 91.3 °F 69.1 °F 55% 30.04 in 10.0 mi ENE 16.1 mph - N/A   Mostly Cloudy
4:20 PM 78.1 °F - 66.0 °F 66% 30.04 in 10.0 mi SE 20.7 mph 34.5 mph N/A Thunderstorm Mostly Cloudy
4:28 PM 75.0 °F - 66.0 °F 73% 30.05 in 10.0 mi SE 24.2 mph 34.5 mph N/A Thunderstorm Overcast
4:51 PM 73.4 °F - 66.2 °F 78% 30.07 in 10.0 mi SE 11.5 mph 23.0 mph N/A Thunderstorm Thunderstorm
4:53 PM 73.0 °F - 66.9 °F 81% 30.07 in 10.0 mi SE 12.7 mph 23.0 mph 0.00 in Rain , Thunderstorm Light Thunderstorms and Rain
5:13 PM 72.0 °F - 69.1 °F 91% 30.06 in 6.0 mi ESE 17.3 mph 21.9 mph 0.00 in Rain Light Rain
5:53 PM 70.0 °F - 66.9 °F 90% 30.07 in 10.0 mi East 9.2 mph - 0.01 in   Overcast
6:41 PM 71.1 °F - 66.9 °F 87% 30.07 in 10.0 mi East 8.1 mph - N/A   Mostly Cloudy
6:53 PM 72.0 °F - 68.0 °F 87% 30.08 in 10.0 mi ENE 5.8 mph - N/A   Scattered Clouds
7:23 PM 72.0 °F - 68.0 °F 87% 30.07 in 10.0 mi ENE 8.1 mph - N/A   Mostly Cloudy
7:30 PM 72.0 °F - 69.1 °F 91% 30.07 in 10.0 mi ENE 6.9 mph - N/A   Mostly Cloudy
7:53 PM 72.0 °F - 69.1 °F 91% 30.08 in 10.0 mi ENE 6.9 mph - N/A   Overcast
8:53 PM 73.9 °F - 70.0 °F 87% 30.10 in 10.0 mi East 10.4 mph - N/A   Overcast
9:35 PM 73.9 °F - 70.0 °F 87% 30.09 in 10.0 mi ENE 10.4 mph 20.7 mph N/A   Mostly Cloudy
9:53 PM 73.9 °F - 70.0 °F 87% 30.10 in 10.0 mi East 10.4 mph - N/A   Mostly Cloudy
10:08 PM 73.9 °F - 70.0 °F 87% 30.10 in 10.0 mi East 9.2 mph - N/A   Mostly Cloudy
10:15 PM 73.9 °F - 70.0 °F 87% 30.10 in 10.0 mi East 10.4 mph - N/A   Mostly Cloudy
10:31 PM 73.9 °F - 70.0 °F 87% 30.10 in 10.0 mi ENE 10.4 mph - N/A   Overcast
10:53 PM 73.9 °F - 70.0 °F 87% 30.11 in 10.0 mi ENE 10.4 mph - N/A   Overcast
11:17 PM 73.9 °F - 70.0 °F 87% 30.10 in 10.0 mi East 12.7 mph - N/A   Overcast
11:26 PM 73.9 °F - 70.0 °F 87% 30.09 in 10.0 mi East 11.5 mph - N/A   Overcast
11:53 PM 73.9 °F - 70.0 °F 87% 30.09 in 10.0 mi East 13.8 mph 20.7 mph N/A   Overcast